    Orbital elements:
    2023 PB                                                  Earth MOID = 0.1786 AU
    Epoch 2023 Sept. 13.0 TT = JDT 2460200.5                Veres                   
    M  40.42283              (2000.0)            P               Q                  
    n   0.45026190     Peri.  344.61362     -0.32107210     +0.84080742             
    a   1.6858771      Node   265.03912     -0.81618291     -0.47908989             
    e   0.5114169      Incl.   25.94306     -0.48037294     +0.25202332             
    P   2.19           H   18.90          G   0.15           U   0                  
    Residuals in seconds of arc
    100514 F51  0.1-  0.2+    230119 F52  0.1+  0.1+    230807 C82 (0.9+  0.6-)
    100514 F51  0.0   0.1+    230119 F52  0.1-  0.0     230807 C82  0.2+  0.0
    100926 F51  0.2-  0.4-    230804 F51  0.0   0.0     230807 C82  0.5-  0.1+
    101009 F51  0.0   0.0     230804 F51  0.0   0.0     230809 033  0.0   0.1+
    101009 F51  0.3+  0.1-    230804 F51  0.2+  0.2+    230809 033  0.1+  0.0
    111207 F51  0.1-  0.0     230804 L51  0.1-  0.2+    230809 033  0.1-  0.0
    111223 F51  0.0   0.1-    230804 L51  0.2-  0.0     230809 033  0.0   0.1-
    120105 F51  0.0   0.3+    230804 L51  0.1-  0.2+    230810 033  0.0   0.1+
    120105 F51  0.1+  0.1+    230805 U55  0.0   0.3-    230810 033  0.0   0.1+
    120106 F51  0.0   0.0     230805 U55  0.2-  0.7-    230810 033  0.1-  0.0
    120106 F51  0.0   0.1+    230805 U55  1.1-  0.5-    230810 033  0.1-  0.0
    120812 F51  0.2-  0.2+    230805 104  0.4-  0.1+    230810 033  0.1-  0.0
    120812 F51  0.2+  0.1+    230805 G15  0.5+  0.0     230810 157  0.1-  0.1-
    120812 F51  0.0   0.2-    230805 104  0.1-  0.1-    230810 157  0.1-  0.0
    120812 F51  0.2-  0.0     230805 G15  0.0   0.6+    230810 157  0.0   0.0
    131211 F51  0.0   0.0     230805 G15  0.4+  0.6+    230812 033  0.2+  0.1+
    131211 F51  0.0   0.0     230805 104  0.1-  0.1-    230812 033  0.2-  0.1+
    131211 F51  0.3+  0.2-    230805 104  0.2+  0.1-    230812 033  0.0   0.0
    140120 F51  0.1-  0.1-    230805 Z45  0.1-  0.1-    230812 033  0.2-  0.1+
    140220 F51  0.1+  0.1+    230805 K78  0.1+  0.2-    230814 157  0.1+  0.0
    140220 F51  0.1-  0.3-    230805 Z45  0.2-  0.1+    230814 157  0.0   0.0
    140220 F51  0.1+  0.0     230805 Z45  0.1+  0.3+    230814 157  0.1+  0.0
    140220 F51  0.1+  0.1+    230805 K78  0.3+  0.0     230815 033  0.0   0.0
    140319 F51  0.4+  0.0     230805 Z45  0.1-  0.6-    230815 033  0.0   0.0
    140319 F51  0.2+  0.2+    230805 Z45  0.4-  0.2-    230815 033  0.0   0.0
    151212 F51  0.0   0.1-    230805 J57  0.3+  0.1-    230815 H36  0.4-  0.5+
    151212 F51  0.2-  0.0     230805 K78  0.3+  0.2-    230815 H36  0.2+  0.5-
    151213 F51  0.3-  0.3-    230805 Z45  0.4-  0.4+    230815 H36  0.4+  0.6+
    151213 F51  0.1-  0.0     230805 J57  0.1-  0.1+    230815 K35  0.5+  0.4+
    151213 F51  0.2+  0.0     230805 J57  0.1-  0.2-    230815 K35  0.3+  0.2+
    151213 F51  0.1-  0.0     230805 Z45  0.1+  0.2-    230815 K35  0.3+  0.2+
    160107 F51  0.2-  0.0     230805 Z45  0.0   0.1-    230815 K35  0.4-  0.1-
    160107 F51  0.0   0.3-    230805 Z45  0.3-  0.0     230815 K35  0.2-  0.1-
    160107 F51  0.1+  0.0     230806 958  0.7-  0.1-    230816 033  0.0   0.1+
    160107 F51  0.2-  0.2-    230806 958  0.1+  0.1-    230816 033  0.1+  0.0
    210614 V00  0.2-  0.2+    230806 J95  0.0   0.2+    230816 033  0.0   0.0
    210614 V00  0.2-  0.1+    230806 J95  0.1+  0.1+    230817 K35  0.6+  0.1-
    210614 V00  0.3+  0.2+    230806 J95  0.1+  0.2+    230817 K35  0.2+  0.5-
    211103 G96  0.2-  0.3+    230806 958  0.8+  0.8+    230817 K35  0.0   0.1-
    211103 G96  0.6-  0.1-    230806 J95  0.1-  0.1+    230825 H36  0.0   0.0
    211202 V00  0.0   0.0     230806 J95  0.1+  0.1-    230825 H36  0.1+  0.0
    211202 V00  0.0   0.1-    230806 Z80  0.5-  0.2-    230827 K35  0.4-  0.1+
    211202 V00  0.1-  0.2+    230806 Z28  0.0   0.1+    230827 K35  0.5-  0.3-
    211202 V00  0.2+  0.2-    230806 Z80  1.2+  0.8+    230827 K35  0.6-  0.6+
    221220 G96  0.4+  0.4+    230806 Z28  0.0   0.1+    230903 F51  0.0   0.1+
    221220 G96  0.3+  0.0     230806 Z28  0.0   0.0     230903 F51  0.4+  0.4-
    221220 G96  0.3+  0.3-    230806 Z80  0.2-  0.4-    230903 F51  0.1+  0.0
    221220 G96  0.2+  0.3+    230807 Z84  0.3+  0.1+    230903 F51  0.1+  0.1-
    230118 F52  0.0   0.0     230807 Z84  0.5+  0.1+
    230118 F52  0.0   0.1+    230807 Z84  0.0   0.2+
    
    Ephemeris:
    2023 PB                  a,e,i = 1.69, 0.51, 26                  q = 0.8237
    Date    TT    R. A. (2000) Decl.     Delta      r    Elong.  Phase     V
    2023 08 08    19 20 17.9 +74 13 17   0.3989  1.0751    87.8    70.5    19.5
    ...
    2023 08 23    19 49 13.4 +65 47 53   0.4971  1.1908    98.5    57.2    19.8
    ...
    2023 08 31    20 00 08.0 +61 36 51   0.5467  1.2538   103.3    51.6    20.0
    ...
    2023 09 06    20 08 12.6 +58 29 23   0.5838  1.3010   106.6    48.0    20.1
    2023 09 07    20 09 34.5 +57 58 04   0.5901  1.3089   107.1    47.4    20.1
    2023 09 08    20 10 56.9 +57 26 44   0.5963  1.3167   107.6    46.9    20.1
    ...
    2023 09 14    20 19 24.4 +54 18 23   0.6346  1.3636   110.4    43.8    20.3
    ...
    2023 09 22    20 31 22.9 +50 08 12   0.6884  1.4252   113.4    40.3    20.4
    ...
    2023 10 07    20 55 49.2 +42 38 25   0.8032  1.5375   116.6    35.5    20.8
    
    A. U. Tomatic                (C) Copyright 2023 MPC           M.P.E.C. 2023-R34
    


    Read MPEC 2023-R33 Read MPEC 2023-R35


    MPEC number:

    Enter an MPEC number in one of the following forms:

    • 1997-B01 (the full form)
    • J97B01 (the packed version of the full form)
    • B01 (the abbreviated form)